Other Surface Observations
Issued by NWS

Home | Current Version | Previous Version | Text Only | Print | Product List | Glossary On
Versions: 1 2 3 4 5 6 7 8 9 10 11 12 13 14 15 16 17 18 19 20 21 22 23 24 25 26 27 28 29 30 31 32 33 34 35 36 37 38 39 40 41 42 43 44 45 46 47 48 49 50
000
SXUS52 KTAE 012318
OSOTAE
OSOTAE
North Florida/South Alabama/Southwest Georgia Weather Roundup
National Weather Service Tallahassee Florida
700 PM EDT MON SEP 01 2014

Note: "fair" indicates few or no clouds below 12,000 feet with no
significant weather and/or obstructions to visibility.

!FLZ017-115-028-034-025-020000
...North Florida...

CITY           SKY/WX    TMP DP  RH WIND       PRES   REMARKS
TALLAHASSEE    MOSUNNY   83  75  77 W5        30.04R HX  90
APALACHICOLA   MOSUNNY   85  75  72 SW6       30.04S HX  93
PERRY          SUNNY     86  73  66 SW10      30.05R HX  93
CROSS CITY       N/A     88  75  65 SW8       30.04R HX  97
HOMERVILLE     FAIR      82  81  94 CALM      30.03F HX  95
JACKSONVILLE   PTCLDY    88  72  58 E10       30.03R HX  94
$$

!FLZ112-006-005-002-011-020000
...Florida Panhandle...

CITY           SKY/WX    TMP DP  RH WIND       PRES   REMARKS
MARIANNA       MOSUNNY   86  72  62 SW8       30.03R HX  92
BONIFAY        FAIR      80  71  74 S6        30.05S
PANAMA CITY NW FAIR      85  74  69 SE6       30.03F HX  92
TYNDALL AFB    CLOUDY    87  76  70 S6        30.05F HX  98
TYND DRONE APT FAIR      86  76  73 S5        30.03F HX  96
DE FUNIAK SPR  FAIR      87  71  60 S6        30.04F HX  92
EGLIN AFB      MOSUNNY   88  75  64 S9        30.04S HX  98
DESTIN         SUNNY     88  76  67 S8        30.03F HX  99
HURLBURT       MOSUNNY   87  71  58 S8        30.03S HX  93
CRESTVIEW      SUNNY     89  71  55 S7        30.05S HX  95
PENSACOLA      MOSUNNY   84  74  71 S12       30.03S HX  91
$$

!ALZ063-066-020000
...South Alabama...

CITY           SKY/WX    TMP DP  RH WIND       PRES   REMARKS
DOTHAN         PTSUNNY   93  66  40 S9        30.06R HX  96
OZARK CAIRNS   MOSUNNY   90  72  54 S9G21     30.03R HX  97
FT RUCKER HELI SUNNY     93  64  38 SW7       30.01S HX  94
RUCKER HELI 3  FAIR      91  70  49 SW10      30.05S HX  96
RUCKER HELI 2  PTSUNNY   92  67  43 VRB5      30.02S HX  95
FLORALA APT    MOSUNNY   90  68  48 S10       30.05S HX  94
ANDALUSIA      CLOUDY    85  74  69 VRB3      30.03F HX  92
TROY           MOSUNNY   92  69  47 W5        30.04R HX  97
EUFALA         TSTM      79  73  83 W5        30.04R
MOBILE         CLOUDY    85  75  72 S8        30.04R HX  93
$$

!GAZ120>161-020000
...Southwest and South Central Georgia...

CITY           SKY/WX    TMP DP  RH WIND       PRES   REMARKS
THOMASVILLE    FAIR      91  70  49 S3        30.03S HX  97
BAINBRIDGE     MOSUNNY   88  75  66 SW8       30.04S HX  97
MOODY AFB      MOSUNNY   93  70  45 S5        30.03S HX  99
VALDOSTA       MOSUNNY   91  72  53 S5        30.02S HX  98
MOULTRIE       SUNNY     91  70  49 S3        30.03S HX  97
BLAKELY        SUNNY     97  64  34 S6          N/A  HX  99
ALBANY         MOSUNNY   93  67  42 W5        30.03R HX  96
TIFTON         HVY RAIN  81  70  69 E9G53     29.93F VSB<1/4
FITZGERALD     FAIR      84  74  72 CALM      30.07S HX  92
CORDELE        FAIR      96  68  40 SW9       30.03S HX 100
AMERICUS       FAIR      93  64  38 SW6       30.04S HX  95
$$

!GMZ750-755-770-775-020000
...Coastal and Buoy Obs...

STATION/POSITION TIME  TEMP    WIND        PRES    VSBY  WAVE
                       AIR SEA DIR/SP/G                  HT/PER
                 (UTC) (F)     (DEG/KT/KT) (MB)    (MI)  (FT/S)
KEATON BEACH     2300   85     240/  9/ 11 1017.5R
CEDAR KEY        2300   86     280/  6/  9 1017.7R
C TOWER          2300   84     190/  5/  6 1017.3S
APALACHICOLA BUO 2300   85 87  180/  6/  8 1017.3F         2/ 6
PANAMA CITY BUOY 2158   83 87  180/ 10/ 12 1017.1          3/ 6
MOBILE BUOY      2200          170/ 14       N/A
ORANGE BCH AL BU 2300   86 86  150/ 12/ 14 1016.9R         4/ 8
$$



USA.gov is the U.S. government's official web portal to all federal, state and local government web resources and services.